Temperature
26 23 22 23 23 25 26 27 27 27 29 28 26 25 25 26 26 25 25 24 24 24 24 24 23 23 22 22 21 21 21 21 20 20 20 19 19 19 19 19 19 19 19 19
23 22 23 24 26 26 26 26 26 27 28 28 26 26 26 26 25 25 25 25 24 24 24 23 23 23 22 22 22 21 21 21 20 20 20 20 20 19 19 19 19 19 19 19
22 23 25 26 26 26 26 26 27 27 27 27 26 25 25 25 26 26 26 25 25 24 24 24 23 23 23 22 22 22 21 21 21 20 20 20 19 19 19 19 19 19 19 19
23 25 26 26 26 27 25 27 28 28 26 24 25 23 24 24 24 25 25 25 25 24 24 24 24 23 23 23 22 22 22 21 21 20 20 20 20 19 20 20 19 19 19 19
23 25 26 26 27 27 27 28 28 27 25 24 24 23 23 23 23 24 25 25 25 25 24 24 24 24 23 23 22 22 22 21 21 20 20 20 20 20 20 19 19 19 19 19
24 26 26 27 28 28 28 27 25 22 21 23 24 24 23 22 24 25 25 26 25 25 25 24 24 24 23 23 22 22 22 21 21 21 20 20 20 20 19 19 19 19 19 19
24 25 26 28 27 27 26 22 21 22 20 22 23 24 23 24 25 25 25 26 26 25 25 24 24 23 23 23 22 22 22 21 21 21 20 20 20 20 20 19 19 19 19 19
22 23 25 27 26 25 25 22 21 22 22 21 23 24 24 25 26 27 27 27 26 25 25 24 24 24 23 23 23 22 22 22 21 21 21 20 20 20 19 19 19 19 19 19
21 22 25 27 27 26 25 22 21 20 22 22 22 23 24 25 25 25 26 26 26 26 25 25 24 24 24 23 23 23 22 22 21 21 21 20 20 20 19 19 19 19 19 19
22 23 25 27 27 26 25 23 20 20 21 22 23 23 23 24 24 24 24 24 25 25 25 24 24 24 24 24 23 23 22 22 22 21 21 20 20 20 19 19 19 19 18 18
23 22 23 25 25 25 25 24 21 18 19 20 22 22 24 23 23 23 23 24 25 25 24 24 24 24 23 23 23 22 22 21 21 21 21 20 20 19 19 19 18 18 18 18
22 20 20 23 24 25 25 23 20 21 21 19 20 21 24 23 23 24 24 24 25 24 24 24 23 23 23 22 22 22 22 21 21 21 20 20 19 19 19 19 18 18 18 18
22 19 20 22 23 24 25 24 21 19 19 19 20 22 23 23 23 24 24 24 24 24 24 23 23 23 22 22 22 22 21 21 20 20 20 19 19 19 19 18 18 18 18 18
22 19 19 21 21 22 24 25 23 20 20 20 21 22 23 23 22 23 24 24 24 23 23 23 23 22 22 22 22 21 21 20 20 20 19 19 19 19 19 18 18 18 18 17
21 20 21 21 23 24 25 25 24 23 21 21 22 22 22 22 22 23 23 23 23 23 23 23 22 22 22 22 21 21 21 20 20 20 19 19 19 18 18 18 18 17 17 17
19 20 21 22 24 25 25 25 25 25 24 23 23 22 22 22 23 23 23 23 22 22 22 22 22 22 22 22 21 21 20 20 20 19 19 19 18 18 18 17 17 17 17 16
18 19 19 20 22 23 23 24 25 25 24 23 23 22 22 21 22 22 22 22 22 22 22 22 22 22 22 21 21 20 20 19 19 19 18 18 18 18 17 17 17 16 16 16
18 17 16 18 21 22 21 22 24 24 24 23 22 22 22 22 22 23 23 23 23 22 22 22 21 21 21 20 20 20 19 19 19 18 18 17 17 17 17 16 16 16 16 16
17 17 17 17 19 21 22 23 23 23 22 22 22 22 22 22 22 21 23 24 23 23 22 22 21 21 20 20 19 19 19 18 18 18 17 17 17 16 16 16 16 15 15 15
17 17 17 17 19 20 21 22 24 22 20 21 21 21 21 21 19 20 22 22 22 22 22 21 21 20 20 19 19 19 18 18 18 17 17 17 16 16 16 15 15 15 15 15
17 17 17 17 19 19 20 22 23 21 20 21 22 22 22 21 21 22 22 22 22 21 21 21 20 20 19 19 18 18 18 18 17 17 17 16 16 16 16 15 15 15 15 14
16 16 16 16 18 18 20 20 20 19 21 22 23 23 23 23 22 22 22 21 21 21 20 20 19 19 18 18 18 18 17 17 17 16 16 16 15 15 15 15 14 14 14 14
16 16 15 16 16 18 20 20 20 21 21 22 22 23 23 22 21 21 21 21 20 20 19 19 19 18 17 17 17 17 17 16 16 16 15 15 15 15 14 14 14 14 14 14
16 16 15 16 17 18 20 20 21 21 22 22 22 22 22 21 20 20 20 20 19 19 19 18 18 18 17 17 17 17 16 16 16 15 15 15 15 14 14 14 14 13 13 13
16 15 15 16 16 18 19 20 20 21 21 21 21 21 21 21 20 19 19 19 19 18 18 18 18 17 17 16 16 16 16 15 15 15 15 14 14 14 14 13 13 13 13 13
15 15 15 15 16 16 17 19 20 20 20 21 20 20 20 20 19 19 19 18 18 18 17 17 17 17 16 16 15 15 15 15 15 15 14 14 14 13 13 13 13 13 12 12
Wind_Speed
1 3 5 9 8 7 4 4 5 6 4 5 7 9 13 13 13 15 15 15 15 15 13 13 14 15 13 12 12 12 11 9 8 5 5 4 4 4 4 6 10 11 10 10
2 6 11 8 7 7 6 5 6 6 2 4 6 6 10 14 17 17 18 17 17 13 12 13 13 14 14 14 13 12 12 11 9 7 5 4 4 4 4 5 8 11 11 10
8 8 7 7 8 7 7 5 6 5 3 4 5 2 4 6 8 12 14 16 16 18 19 18 17 16 15 15 15 14 12 11 10 8 5 3 2 1 2 4 5 7 10 10
7 9 7 7 9 7 7 7 4 2 2 2 4 3 7 6 6 11 13 13 15 16 15 16 17 17 17 16 14 13 12 11 10 9 7 7 6 5 6 5 5 5 9 9
8 7 7 9 10 7 7 6 3 1 3 1 1 3 7 2 6 11 14 15 16 17 18 18 18 18 16 15 14 12 11 11 10 10 10 9 7 6 4 4 5 6 5 7
9 7 7 9 8 6 4 2 6 6 5 1 5 4 6 6 10 11 13 15 15 16 16 16 14 12 12 12 12 12 12 11 11 10 10 10 9 7 6 6 6 5 4 4
5 8 6 4 3 3 4 6 4 4 4 6 5 4 8 10 10 12 13 15 15 15 16 15 14 14 13 14 13 12 12 10 10 10 10 9 9 8 8 7 6 5 4 4
6 7 6 5 8 7 5 10 8 5 5 5 4 4 7 7 8 9 9 11 13 14 15 16 16 16 15 15 13 12 13 11 11 11 10 8 8 6 6 6 5 5 5 5
8 7 7 6 6 10 6 6 10 7 2 1 5 6 6 3 2 4 6 7 11 14 15 16 16 16 15 15 15 14 13 11 11 11 9 8 8 7 6 5 5 5 5 5
7 5 6 5 3 4 9 8 7 6 4 3 5 4 4 3 1 3 6 7 7 10 12 13 14 15 14 13 12 11 11 11 10 10 9 8 7 6 5 5 5 5 4 4
6 4 5 1 7 9 5 5 6 6 6 6 3 7 6 6 6 7 6 7 9 10 11 11 11 11 10 8 9 9 9 9 9 9 8 7 5 5 5 4 5 5 4 4
7 5 4 7 8 10 8 9 9 6 4 6 5 7 7 4 5 8 8 8 8 9 10 10 10 10 9 9 9 9 8 8 8 8 7 6 5 5 5 4 4 3 3 3
8 6 1 5 4 2 5 6 7 7 6 5 5 6 4 3 5 8 11 10 9 9 9 8 9 9 9 9 9 9 8 8 7 6 6 5 5 4 4 3 2 2 3 2
8 6 7 9 8 6 5 5 6 7 5 6 7 7 4 1 5 6 9 10 10 9 9 8 8 8 8 8 8 7 7 7 8 7 7 6 5 5 4 3 3 3 3 4
8 5 5 5 4 4 5 7 7 7 9 9 9 9 9 7 8 8 9 10 11 10 9 9 8 7 7 7 7 7 6 6 7 7 7 5 5 5 4 4 4 4 4 5
5 6 3 1 2 1 3 6 8 8 6 7 7 5 7 6 6 7 9 11 10 10 9 9 9 8 8 8 8 7 7 6 7 7 6 6 6 6 5 5 5 5 5 5
3 6 5 2 3 3 3 6 7 6 5 8 8 9 7 7 9 10 11 12 11 9 8 8 7 8 8 8 9 8 7 7 7 7 6 6 6 7 6 6 6 6 5 5
6 6 5 3 3 3 8 4 3 4 2 4 7 9 11 11 9 7 9 11 11 10 8 7 7 6 7 8 8 9 8 8 8 8 7 6 7 7 7 7 7 6 5 6
7 8 5 4 2 4 6 4 1 4 1 2 8 9 9 10 8 4 3 9 11 10 9 7 7 8 8 9 9 10 9 8 8 8 7 7 7 8 9 8 7 6 7 7
6 8 6 5 4 5 6 8 3 6 1 3 7 11 10 10 6 4 4 7 9 10 10 9 10 10 10 9 9 10 8 8 7 7 7 7 8 8 8 8 7 6 7 7
5 5 5 5 3 5 7 8 3 5 6 4 7 9 10 7 7 8 9 9 9 10 11 11 11 10 9 9 10 10 9 8 7 7 8 8 8 8 8 8 7 7 7 8
5 5 4 5 4 6 5 5 1 6 4 3 5 7 8 9 11 11 11 11 12 11 11 12 11 10 8 9 10 10 9 8 8 9 9 8 8 7 8 8 7 7 7 7
4 6 6 6 6 6 2 1 2 4 5 3 4 6 11 13 12 12 10 11 11 11 11 10 12 11 8 8 10 11 8 8 9 9 9 9 8 7 6 7 7 6 5 6
2 2 4 3 1 1 2 2 2 4 7 5 6 8 11 12 12 12 12 11 10 10 11 10 11 11 9 8 9 10 10 9 10 10 8 8 8 8 7 6 5 5 5 5
1 2 3 2 1 2 4 2 4 7 9 9 7 7 9 13 12 12 11 11 10 9 9 9 10 10 9 9 9 9 10 10 10 9 9 8 8 8 8 7 6 5 3 3
1 3 4 4 5 3 2 0 4 7 7 7 8 7 7 10 10 10 10 9 9 10 9 10 10 10 9 9 9 9 9 10 11 9 8 7 6 6 6 7 7 12 8 9
Wind_Direction
196 98 219 227 209 212 245 282 281 268 241 153 157 166 180 185 181 176 179 183 184 186 180 170 170 170 169 169 168 169 169 173 165 162 161 161 176 182 185 190 192 191 190 187
48 239 230 232 252 255 260 273 285 295 284 141 161 186 187 188 190 185 183 185 185 178 172 171 170 174 177 177 176 173 176 176 176 177 173 169 168 183 190 194 194 196 195 193
198 235 227 228 252 260 266 238 248 256 333 42 109 315 242 217 204 195 190 188 183 181 179 177 175 181 179 182 182 181 180 179 181 175 164 155 139 152 190 200 204 205 201 200
236 247 238 233 240 219 252 251 241 231 97 272 131 208 266 227 208 198 194 189 187 184 182 180 178 181 184 186 183 179 178 180 183 177 177 177 183 196 208 204 202 205 205 204
235 228 218 226 231 213 224 252 243 202 132 45 5 144 269 244 211 208 196 195 191 186 183 184 184 185 185 182 180 179 178 182 186 187 186 187 197 204 205 198 200 204 207 207
243 255 212 216 229 214 213 19 21 43 72 274 238 163 255 227 209 207 198 195 191 184 183 184 184 178 176 175 178 179 182 189 189 190 189 192 197 199 199 203 202 207 206 208
271 274 260 218 211 276 117 94 33 358 10 252 256 187 237 234 212 196 191 193 190 181 179 179 177 176 177 178 180 181 185 193 191 191 193 194 197 195 199 202 200 199 203 211
198 262 245 211 181 187 175 141 156 183 216 274 316 235 256 244 208 185 181 180 177 179 182 183 182 180 182 180 179 183 187 194 195 195 197 195 193 195 203 203 196 198 205 215
182 237 259 222 183 154 154 166 165 141 177 261 289 291 318 4 139 153 155 159 175 181 181 182 180 181 182 180 180 187 190 193 196 198 195 195 195 195 199 199 193 198 206 212
168 224 261 227 149 162 160 156 103 120 155 238 293 283 243 261 196 139 138 156 175 173 174 175 177 180 181 180 179 179 187 193 195 195 197 200 199 198 194 189 196 199 202 204
169 182 280 216 179 188 150 131 122 133 152 158 241 275 242 207 184 155 144 151 159 157 162 163 168 170 167 165 166 173 184 187 186 188 190 193 193 189 184 190 204 200 192 190
170 143 233 246 234 184 165 172 150 156 208 166 169 264 282 193 168 136 126 130 139 140 149 151 149 149 152 156 169 175 184 185 186 183 178 183 181 178 183 195 202 189 178 179
157 136 152 328 324 183 166 170 154 141 136 157 169 254 306 72 106 122 123 124 129 128 127 131 133 138 150 159 164 173 178 177 174 168 167 167 163 163 170 179 173 151 139 133
137 127 160 191 212 197 197 211 169 137 164 199 204 218 264 154 128 129 126 134 135 130 125 125 130 142 151 154 153 155 156 154 151 152 157 158 157 158 158 151 132 121 117 110
131 154 175 204 226 193 199 218 203 183 184 184 209 202 216 202 171 154 141 137 134 131 129 135 141 142 140 138 139 141 138 138 141 144 149 149 135 126 123 119 115 108 104 103
117 147 152 293 313 238 231 231 217 209 189 183 174 210 213 184 147 132 140 140 137 140 141 144 143 142 143 142 137 132 129 132 135 136 137 126 117 115 109 105 102 97 97 93
110 123 125 238 312 37 275 243 216 214 197 173 189 205 164 133 137 149 151 142 137 138 139 143 145 142 143 139 135 130 129 123 118 118 117 115 118 116 112 113 105 101 99 94
128 111 119 118 69 211 242 247 189 180 201 179 163 164 154 150 149 144 145 141 137 138 143 143 142 135 126 123 119 116 114 114 113 110 108 108 113 117 113 108 105 106 103 96
140 128 114 117 150 281 299 305 206 164 271 197 151 151 147 133 96 73 135 138 142 144 145 138 133 127 119 116 116 113 110 109 111 113 113 112 114 113 110 109 109 107 101 92
88 106 114 122 146 217 261 289 278 116 229 261 148 145 143 127 125 188 164 127 126 129 127 122 118 114 114 117 117 111 111 110 112 114 112 110 110 111 113 112 107 102 99 96
76 80 124 139 178 250 267 300 4 131 210 228 154 148 145 148 162 159 139 128 128 126 124 122 120 120 122 121 116 113 111 111 112 108 104 103 104 107 109 107 104 104 101 95
153 141 162 144 169 244 295 4 105 198 197 151 137 134 125 123 119 124 127 128 128 126 124 124 121 117 115 117 116 114 115 115 110 106 104 102 101 106 109 108 104 103 106 100
163 175 170 173 201 234 288 120 246 159 123 107 109 120 123 124 128 129 128 127 129 130 127 123 122 119 116 115 119 121 122 118 111 105 104 100 94 90 99 108 111 107 105 105
340 64 107 114 185 198 46 48 59 95 100 102 116 118 124 128 132 130 131 129 128 127 128 127 125 125 124 121 117 122 123 118 113 108 103 99 97 89 81 83 93 104 108 113
260 50 77 107 181 47 29 44 100 92 92 90 86 96 120 127 131 133 135 135 134 130 129 131 132 131 132 127 121 123 124 122 116 111 106 100 97 99 87 74 64 85 87 128
272 151 147 202 211 168 223 256 104 105 104 109 104 89 104 121 124 125 131 134 135 135 133 130 129 131 133 130 127 128 128 129 126 122 118 115 113 108 106 101 80 56 66 79
Height
1506 1513 1518 1515 1514 1515 1515 1519 1520 1512 1502 1507 1513 1515 1515 1516 1519 1521 1523 1526 1529 1531 1534 1538 1541 1543 1546 1549 1551 1553 1555 1557 1559 1561 1562 1564 1565 1567 1568 1569 1571 1572 1573 1574
1512 1515 1507 1506 1508 1510 1513 1520 1519 1511 1502 1506 1513 1515 1512 1513 1514 1515 1518 1521 1525 1529 1532 1535 1538 1540 1543 1546 1549 1551 1553 1555 1557 1559 1561 1562 1564 1566 1567 1568 1569 1570 1571 1572
1513 1507 1502 1505 1508 1511 1513 1517 1516 1515 1508 1508 1515 1523 1517 1514 1513 1514 1515 1517 1521 1524 1527 1531 1534 1537 1540 1543 1546 1548 1551 1553 1555 1557 1559 1561 1562 1564 1565 1566 1566 1567 1568 1570
1507 1501 1501 1505 1507 1508 1516 1504 1505 1508 1519 1528 1522 1542 1524 1515 1513 1512 1514 1516 1518 1522 1525 1527 1531 1534 1536 1540 1543 1546 1548 1551 1553 1554 1556 1557 1558 1559 1561 1563 1564 1565 1566 1567
1505 1497 1500 1503 1501 1500 1505 1498 1501 1506 1516 1527 1525 1537 1530 1516 1516 1510 1508 1510 1512 1516 1520 1523 1526 1529 1533 1537 1541 1544 1546 1548 1550 1551 1553 1555 1556 1557 1559 1560 1561 1562 1564 1565
1498 1492 1493 1494 1492 1494 1495 1501 1508 1517 1527 1542 1528 1534 1534 1518 1509 1503 1503 1505 1508 1512 1516 1520 1525 1529 1532 1536 1539 1542 1544 1545 1547 1548 1550 1552 1553 1555 1556 1557 1558 1560 1561 1562
1500 1493 1489 1488 1494 1494 1498 1521 1543 1544 1554 1548 1526 1527 1526 1502 1496 1495 1497 1500 1503 1508 1513 1517 1522 1526 1529 1532 1535 1538 1541 1542 1544 1546 1548 1549 1551 1553 1554 1555 1556 1557 1558 1559
1511 1510 1491 1486 1492 1499 1502 1517 1544 1555 1556 1546 1526 1527 1512 1493 1490 1491 1493 1496 1500 1505 1510 1514 1518 1522 1526 1529 1532 1535 1538 1539 1542 1544 1545 1547 1548 1550 1551 1552 1553 1554 1555 1556
1509 1508 1485 1482 1482 1489 1501 1513 1516 1535 1538 1543 1536 1520 1505 1493 1492 1492 1494 1497 1500 1503 1507 1511 1515 1520 1523 1525 1528 1531 1534 1537 1539 1542 1543 1545 1546 1547 1548 1550 1551 1551 1552 1553
1493 1502 1487 1480 1481 1484 1491 1500 1521 1536 1549 1552 1538 1528 1521 1503 1498 1495 1495 1498 1500 1502 1506 1509 1513 1516 1519 1523 1526 1529 1532 1535 1537 1539 1541 1542 1543 1544 1546 1547 1548 1548 1549 1549
1487 1500 1495 1487 1490 1493 1494 1501 1515 1531 1537 1550 1550 1535 1502 1499 1495 1494 1495 1497 1500 1503 1506 1509 1512 1515 1519 1523 1526 1529 1531 1533 1535 1537 1538 1540 1541 1542 1543 1544 1545 1546 1546 1547
1484 1498 1505 1494 1481 1478 1486 1496 1510 1529 1534 1537 1543 1532 1494 1492 1491 1491 1494 1498 1500 1503 1505 1508 1511 1514 1518 1522 1525 1527 1529 1531 1532 1535 1536 1538 1539 1540 1541 1541 1542 1543 1543 1544
1481 1498 1512 1507 1498 1486 1487 1490 1499 1512 1525 1535 1539 1526 1494 1492 1492 1492 1494 1497 1501 1503 1506 1509 1512 1515 1517 1520 1523 1525 1527 1528 1530 1533 1535 1536 1537 1537 1538 1539 1540 1540 1541 1541
1472 1492 1505 1512 1504 1492 1491 1490 1493 1507 1523 1527 1523 1514 1501 1496 1495 1495 1496 1498 1502 1505 1507 1510 1512 1515 1517 1519 1522 1524 1526 1528 1529 1531 1532 1533 1534 1535 1536 1537 1538 1538 1539 1539
1470 1489 1489 1488 1483 1483 1485 1486 1488 1497 1504 1513 1509 1506 1499 1496 1494 1495 1497 1500 1503 1505 1507 1510 1512 1515 1517 1519 1521 1523 1525 1527 1527 1529 1530 1531 1532 1534 1534 1535 1536 1536 1537 1537
1471 1483 1486 1487 1480 1480 1483 1481 1482 1486 1490 1496 1497 1499 1491 1491 1492 1494 1497 1499 1502 1505 1507 1509 1511 1513 1516 1518 1520 1522 1524 1525 1526 1527 1527 1529 1531 1532 1532 1534 1534 1535 1536 1536
1475 1482 1493 1498 1487 1485 1493 1482 1480 1482 1481 1486 1495 1493 1488 1490 1492 1493 1495 1497 1501 1504 1507 1509 1511 1512 1514 1517 1519 1520 1522 1524 1525 1525 1526 1527 1529 1530 1531 1533 1534 1534 1535 1536
1474 1484 1495 1499 1496 1506 1492 1474 1473 1477 1478 1478 1480 1483 1484 1487 1490 1492 1494 1496 1499 1503 1506 1508 1510 1512 1514 1516 1518 1520 1521 1523 1524 1525 1525 1527 1528 1529 1531 1532 1533 1533 1534 1535
1465 1479 1494 1504 1505 1498 1483 1473 1473 1478 1484 1477 1479 1481 1483 1486 1490 1494 1495 1496 1498 1502 1505 1508 1510 1512 1514 1517 1518 1520 1521 1522 1523 1525 1526 1527 1529 1530 1531 1532 1533 1534 1534 1535
1467 1473 1490 1501 1503 1506 1489 1472 1468 1474 1489 1478 1477 1479 1482 1485 1495 1498 1497 1498 1500 1502 1505 1508 1510 1512 1515 1517 1519 1520 1521 1522 1523 1525 1526 1528 1529 1530 1531 1532 1533 1534 1535 1536
1480 1484 1491 1498 1500 1494 1478 1471 1468 1488 1490 1478 1476 1478 1480 1483 1487 1492 1495 1498 1501 1503 1506 1508 1511 1513 1515 1517 1518 1520 1521 1523 1524 1526 1527 1528 1530 1531 1532 1533 1534 1535 1536 1537
1483 1489 1493 1497 1501 1498 1474 1472 1477 1478 1474 1475 1476 1478 1479 1482 1486 1491 1494 1497 1500 1503 1506 1508 1511 1513 1515 1517 1519 1520 1522 1524 1525 1527 1528 1529 1531 1532 1533 1534 1535 1536 1537 1538
1477 1479 1483 1487 1489 1479 1474 1474 1473 1472 1472 1474 1476 1478 1479 1483 1486 1491 1494 1498 1501 1504 1506 1509 1511 1513 1516 1518 1519 1520 1522 1524 1526 1528 1529 1530 1532 1533 1535 1536 1536 1538 1539 1540
1474 1472 1476 1481 1479 1476 1475 1474 1474 1474 1473 1475 1477 1479 1480 1483 1487 1491 1494 1498 1501 1504 1507 1509 1512 1514 1516 1518 1520 1521 1523 1525 1527 1528 1530 1531 1533 1534 1535 1537 1538 1539 1540 1541
1475 1474 1477 1480 1478 1476 1476 1476 1475 1475 1475 1477 1479 1481 1482 1484 1488 1491 1494 1498 1501 1505 1508 1510 1512 1514 1517 1519 1521 1522 1524 1526 1527 1529 1531 1532 1534 1535 1536 1537 1539 1540 1541 1542
1475 1476 1479 1481 1477 1478 1478 1477 1476 1476 1477 1478 1480 1483 1485 1486 1489 1492 1495 1499 1502 1504 1507 1510 1513 1515 1517 1519 1521 1523 1525 1527 1528 1530 1532 1533 1535 1536 1537 1538 1539 1541 1542 1543